Regional Weather Roundup
Issued by NWS Glasgow, MT

Home | Current Version | Previous Version | Text Only | Print | Product List | Glossary On
Versions: 1 2 3 4 5 6 7 8 9 10 11 12 13 14 15 16 17 18 19 20 21 22 23 24 25 26 27 28 29 30 31 32 33 34 35 36 37 38 39 40 41 42 43 44 45 46 47 48 49 50
000
ASUS45 KGGW 051815
RWRGGW
HOURLY REGIONAL WEATHER ROUNDUP FOR NORTHEAST MONTANA
NATIONAL WEATHER SERVICE GLASGOW MONTANA
1200 PM MDT SUN JUL 05 2015

NOTE: "FAIR" INDICATES FEW OR NO CLOUDS BELOW 12,000 FEET WITH NO
SIGNIFICANT WEATHER AND/OR OBSTRUCTIONS TO VISISBILITY.

NORTHEAST MONTANA


CITY           SKY/WX    TMP DP  RH WIND       PRES   REMARKS
GLASGOW        CLOUDY    68  47  46 N18G26    30.04R
6HR MIN TEMP:  58; 6HR MAX TEMP:  71; 6HR PCP: TRACE;

PLENTYWOOD       N/A     70  44  39 SW14G24     N/A
WOLF POINT     PTSUNNY   75  49  39 N20G29    30.00R
JORDAN           N/A     68  49  50 N20       30.06R
WINNETT          N/A     66  47  50 NE12G20     N/A
SIDNEY         SUNNY     73  54  49 NW16      29.97R
GLENDIVE       CLOUDY    66  52  59 N14       30.02R
MALTA            N/A     59  53  80 W7          N/A
SCOBEY           N/A     65  48  54 NW13      30.02R

FORT PECK REPORTS


CITY           SKY/WX    TMP DP  RH WIND       PRES   REMARKS
FORT PECK        N/A     69  48  47 NW20        N/A
THE PINES        N/A     69  49  48 NW10        N/A

SOUTHEAST MONTANA


CITY           SKY/WX    TMP DP  RH WIND       PRES   REMARKS
BILLINGS       CLOUDY    60  50  69 NE13      30.13R
MILES CITY     CLOUDY    66  51  58 N18       30.01F HAZE
BAKER          PTSUNNY   71  57  61 N24G30    29.97R
LIVINGSTON     CLOUDY    61  50  67 E18G26    30.11F HAZE

CENTRAL MONTANA


CITY           SKY/WX    TMP DP  RH WIND       PRES   REMARKS
HAVRE          LGT RAIN  56  54  93 MISG      30.15S FOG
LEWISTOWN      CLOUDY    56  51  84 CALM      30.15S HAZE
GREAT FALLS    LGT RAIN  51  50  96 N13       30.17S FOG
CUT BANK       CLOUDY    50  47  89 NW6       30.20F
HELENA         CLOUDY    59  47  64 NW12      30.15R
BUTTE          CLOUDY    60  47  61 N6        30.13S
BOZEMAN        CLOUDY    63  53  70 NW12      30.09S

WESTERN MONTANA


CITY           SKY/WX    TMP DP  RH WIND       PRES   REMARKS
MISSOULA       SUNNY     74  45  35 E20G29    30.00F
KALISPELL      NOT AVBL

NORTH DAKOTA


CITY           SKY/WX    TMP DP  RH WIND       PRES   REMARKS
WILLISTON      CLOUDY    74  52  46 N18       29.95S HAZE
DICKINSON      PTSUNNY   71  60  68 N16G28    29.90R
MINOT          MOSUNNY   73  62  68 NW13G23   29.86R HAZE
BISMARCK       PTSUNNY   73  64  73 N6        29.83R

SOUTHERN SASKATCHEWAN


CITY           SKY/WX    TMP DP  RH WIND       PRES   REMARKS
REGINA         PTSUNNY   68  50  52 NW23G32   29.98R
ESTEVAN        CLOUDY    68  57  68 NW16      29.94R SMOKE
SWIFT CURRENT  PTSUNNY   61  48  63 NW16G23   30.07R




USA.gov is the U.S. government's official web portal to all federal, state and local government web resources and services.